Time,TemperatureF,DewpointF,PressureIn,WindDirection,WindDirectionDegrees,WindSpeedMPH,WindSpeedGustMPH,Humidity,HourlyPrecipIn,Conditions,Clouds,dailyrainin,SoftwareType,DateUTC
2013-05-21 00:03:00,64.0,63.0,29.78,ESE,102,1.0,3.0,95,0.00,,,0.38,,2013-05-21 04:03:00,
2013-05-21 00:13:00,64.0,63.0,29.78,ESE,102,1.0,3.0,95,0.00,,,0.38,,2013-05-21 04:13:00,
2013-05-21 00:23:00,64.0,63.0,29.77,East,96,0.0,3.0,95,0.00,,,0.38,,2013-05-21 04:23:00,
2013-05-21 00:33:00,62.0,60.0,29.78,East,96,0.0,1.0,94,0.00,,,0.38,,2013-05-21 04:33:00,
2013-05-21 00:42:00,62.0,60.0,29.78,East,96,0.0,1.0,94,0.00,,,0.38,,2013-05-21 04:42:00,
2013-05-21 00:53:00,62.0,60.0,29.77,East,96,0.0,2.0,94,0.00,,,0.38,,2013-05-21 04:53:00,
2013-05-21 01:02:00,61.0,59.0,29.77,East,96,0.0,3.0,94,0.00,,,0.38,,2013-05-21 05:02:00,
2013-05-21 01:12:00,62.0,60.0,29.77,East,96,2.0,3.0,94,0.00,,,0.38,,2013-05-21 05:12:00,
2013-05-21 01:22:00,62.0,60.0,29.77,East,96,2.0,3.0,94,0.00,,,0.38,,2013-05-21 05:22:00,
2013-05-21 01:32:00,62.0,60.0,29.77,East,96,2.0,3.0,94,0.00,,,0.38,,2013-05-21 05:32:00,
2013-05-21 01:42:00,61.0,60.0,29.77,East,96,0.0,1.0,95,0.00,,,0.38,,2013-05-21 05:42:00,
2013-05-21 01:51:00,61.0,60.0,29.77,East,96,0.0,1.0,95,0.00,,,0.38,,2013-05-21 05:51:00,
2013-05-21 02:02:00,60.0,59.0,29.77,East,95,1.0,2.0,95,0.00,,,0.38,,2013-05-21 06:02:00,
2013-05-21 02:12:00,60.0,59.0,29.77,East,95,1.0,2.0,95,0.00,,,0.38,,2013-05-21 06:12:00,
2013-05-21 02:21:00,60.0,59.0,29.76,East,95,1.0,2.0,95,0.00,,,0.38,,2013-05-21 06:21:00,
2013-05-21 02:32:00,60.0,59.0,29.75,East,96,0.0,2.0,95,0.00,,,0.38,,2013-05-21 06:32:00,
2013-05-21 02:42:00,60.0,59.0,29.75,East,96,0.0,2.0,95,0.00,,,0.38,,2013-05-21 06:42:00,
2013-05-21 02:52:00,60.0,59.0,29.73,East,95,1.0,3.0,95,0.00,,,0.38,,2013-05-21 06:52:00,
2013-05-21 03:01:00,60.0,59.0,29.72,East,95,0.0,2.0,95,0.00,,,0.38,,2013-05-21 07:01:00,
2013-05-21 03:11:00,60.0,59.0,29.72,East,95,0.0,2.0,95,0.00,,,0.38,,2013-05-21 07:11:00,
2013-05-21 03:22:00,60.0,59.0,29.72,East,95,0.0,2.0,95,0.00,,,0.38,,2013-05-21 07:22:00,
2013-05-21 03:31:00,59.0,58.0,29.73,East,96,0.0,0.0,95,0.00,,,0.38,,2013-05-21 07:31:00,
2013-05-21 03:41:00,59.0,58.0,29.73,East,96,0.0,0.0,95,0.00,,,0.38,,2013-05-21 07:41:00,
2013-05-21 03:52:00,59.0,58.0,29.74,East,95,0.0,3.0,95,0.00,,,0.38,,2013-05-21 07:52:00,
2013-05-21 04:02:00,59.0,58.0,29.73,East,96,0.0,3.0,95,0.00,,,0.38,,2013-05-21 08:02:00,
2013-05-21 04:11:00,60.0,59.0,29.72,East,96,1.0,3.0,95,0.00,,,0.38,,2013-05-21 08:11:00,
2013-05-21 04:21:00,60.0,59.0,29.72,East,96,1.0,3.0,95,0.00,,,0.38,,2013-05-21 08:21:00,
2013-05-21 04:31:00,60.0,59.0,29.72,East,96,0.0,3.0,95,0.00,,,0.38,,2013-05-21 08:31:00,
2013-05-21 04:41:00,60.0,59.0,29.74,East,96,2.0,3.0,95,0.00,,,0.38,,2013-05-21 08:41:00,
2013-05-21 04:52:00,60.0,59.0,29.74,East,96,2.0,3.0,95,0.00,,,0.38,,2013-05-21 08:52:00,
2013-05-21 05:01:00,60.0,59.0,29.76,East,96,2.0,3.0,95,0.01,,,0.39,,2013-05-21 09:01:00,
2013-05-21 05:11:00,60.0,59.0,29.76,East,96,2.0,3.0,95,0.01,,,0.39,,2013-05-21 09:11:00,
2013-05-21 05:21:00,61.0,60.0,29.78,WNW,285,2.0,3.0,96,0.02,,,0.40,,2013-05-21 09:21:00,
2013-05-21 05:33:00,62.0,61.0,29.78,SW,223,3.0,9.0,96,0.03,,,0.41,,2013-05-21 09:33:00,
2013-05-21 05:42:00,62.0,61.0,29.78,SW,223,3.0,9.0,96,0.03,,,0.41,,2013-05-21 09:42:00,
2013-05-21 05:53:00,62.0,61.0,29.80,NW,307,3.0,8.0,96,0.05,,,0.43,,2013-05-21 09:53:00,
2013-05-21 06:02:00,61.0,60.0,29.78,West,278,3.0,4.0,95,0.11,,,0.49,,2013-05-21 10:02:00,
2013-05-21 06:12:00,61.0,60.0,29.78,West,278,3.0,4.0,95,0.11,,,0.49,,2013-05-21 10:12:00,
2013-05-21 06:22:00,61.0,60.0,29.72,North,0,3.0,11.0,95,0.13,,,0.52,,2013-05-21 10:22:00,
2013-05-21 06:32:00,61.0,60.0,29.72,NNE,24,3.0,9.0,95,0.13,,,0.53,,2013-05-21 10:32:00,
2013-05-21 06:42:00,61.0,60.0,29.72,NNE,24,3.0,9.0,95,0.13,,,0.53,,2013-05-21 10:42:00,
2013-05-21 06:52:00,61.0,60.0,29.74,NNE,24,0.0,2.0,95,0.11,,,0.53,,2013-05-21 10:52:00,
2013-05-21 07:02:00,60.0,59.0,29.78,NNE,24,2.0,3.0,95,0.04,,,0.53,,2013-05-21 11:02:00,
2013-05-21 07:12:00,60.0,59.0,29.78,NNE,24,2.0,3.0,95,0.04,,,0.53,,2013-05-21 11:12:00,
2013-05-21 07:22:00,60.0,59.0,29.78,NNE,24,0.0,4.0,95,0.04,,,0.56,,2013-05-21 11:22:00,
2013-05-21 07:32:00,60.0,59.0,29.77,NNE,24,1.0,3.0,95,0.04,,,0.57,,2013-05-21 11:32:00,
2013-05-21 07:42:00,60.0,59.0,29.77,NNE,24,1.0,3.0,95,0.04,,,0.57,,2013-05-21 11:42:00,
2013-05-21 07:52:00,60.0,59.0,29.76,NNE,24,2.0,3.0,95,0.06,,,0.59,,2013-05-21 11:52:00,
2013-05-21 08:01:00,60.0,59.0,29.76,NNE,24,3.0,3.0,95,0.07,,,0.59,,2013-05-21 12:01:00,
2013-05-21 08:11:00,60.0,59.0,29.76,NNE,24,3.0,3.0,95,0.07,,,0.59,,2013-05-21 12:11:00,
2013-05-21 08:21:00,60.0,59.0,29.75,WNW,293,2.0,4.0,95,0.10,,,0.64,,2013-05-21 12:21:00,
2013-05-21 08:32:00,60.0,59.0,29.74,SE,139,3.0,3.0,95,0.08,,,0.65,,2013-05-21 12:32:00,
2013-05-21 08:42:00,60.0,59.0,29.74,SE,139,3.0,3.0,95,0.08,,,0.65,,2013-05-21 12:42:00,
2013-05-21 08:52:00,60.0,59.0,29.73,ESE,109,1.0,3.0,95,0.07,,,0.65,,2013-05-21 12:52:00,
2013-05-21 09:01:00,61.0,60.0,29.72,SE,136,2.0,6.0,95,0.05,,,0.65,,2013-05-21 13:01:00,
2013-05-21 09:12:00,61.0,60.0,29.72,SE,136,2.0,6.0,95,0.05,,,0.65,,2013-05-21 13:12:00,
2013-05-21 09:22:00,61.0,60.0,29.72,South,186,0.0,4.0,95,0.04,,,0.66,,2013-05-21 13:22:00,
2013-05-21 09:32:00,61.0,59.0,29.73,SE,132,3.0,4.0,94,0.01,,,0.66,,2013-05-21 13:32:00,
2013-05-21 09:42:00,62.0,61.0,29.72,SE,132,0.0,3.0,95,0.02,,,0.67,,2013-05-21 13:42:00,
2013-05-21 09:52:00,62.0,61.0,29.72,SE,132,0.0,3.0,95,0.02,,,0.67,,2013-05-21 13:52:00,
2013-05-21 10:01:00,62.0,61.0,29.73,NE,38,2.0,3.0,95,0.02,,,0.67,,2013-05-21 14:01:00,
2013-05-21 10:11:00,62.0,61.0,29.73,NE,38,2.0,3.0,95,0.02,,,0.67,,2013-05-21 14:11:00,
2013-05-21 10:21:00,64.0,63.0,29.73,NE,56,1.0,4.0,95,0.02,,,0.67,,2013-05-21 14:21:00,
2013-05-21 10:32:00,66.0,64.0,29.73,SSW,202,3.0,6.0,94,0.01,,,0.67,,2013-05-21 14:32:00,
2013-05-21 10:42:00,66.0,64.0,29.73,SSW,202,3.0,6.0,94,0.01,,,0.67,,2013-05-21 14:42:00,
2013-05-21 10:52:00,66.0,64.0,29.73,SSE,155,3.0,6.0,92,0.00,,,0.67,,2013-05-21 14:52:00,
2013-05-21 11:01:00,66.0,64.0,29.73,SSE,156,3.0,5.0,92,0.00,,,0.67,,2013-05-21 15:01:00,
2013-05-21 11:11:00,67.0,64.0,29.74,SW,214,2.0,6.0,89,0.00,,,0.67,,2013-05-21 15:11:00,
2013-05-21 11:21:00,67.0,64.0,29.74,SW,214,2.0,6.0,89,0.00,,,0.67,,2013-05-21 15:21:00,
2013-05-21 11:33:00,67.0,64.0,29.74,SSE,148,2.0,6.0,89,0.00,,,0.67,,2013-05-21 15:33:00,
2013-05-21 11:42:00,67.0,64.0,29.74,SSE,148,2.0,6.0,89,0.00,,,0.67,,2013-05-21 15:42:00,
2013-05-21 11:53:00,67.0,64.0,29.74,SSE,148,2.0,6.0,89,0.00,,,0.67,,2013-05-21 15:53:00,
2013-05-21 12:03:00,68.0,63.0,29.74,SSE,156,4.0,6.0,84,0.00,,,0.67,,2013-05-21 16:03:00,
2013-05-21 12:13:00,68.0,63.0,29.75,South,183,3.0,6.0,83,0.00,,,0.67,,2013-05-21 16:13:00,
2013-05-21 12:23:00,68.0,63.0,29.75,South,183,3.0,6.0,83,0.00,,,0.67,,2013-05-21 16:23:00,
2013-05-21 12:32:00,68.0,63.0,29.74,SSE,150,2.0,5.0,83,0.00,,,0.67,,2013-05-21 16:32:00,
2013-05-21 12:42:00,69.0,63.0,29.74,South,184,0.0,6.0,81,0.00,,,0.67,,2013-05-21 16:42:00,
2013-05-21 12:52:00,69.0,63.0,29.74,South,184,0.0,6.0,81,0.00,,,0.67,,2013-05-21 16:52:00,
2013-05-21 13:02:00,70.0,64.0,29.73,SSW,202,2.0,6.0,80,0.00,,,0.67,,2013-05-21 17:02:00,
2013-05-21 13:12:00,70.0,62.0,29.73,WSW,238,3.0,6.0,76,0.00,,,0.67,,2013-05-21 17:12:00,
2013-05-21 13:23:00,70.0,62.0,29.73,WSW,238,3.0,6.0,76,0.00,,,0.67,,2013-05-21 17:23:00,
2013-05-21 13:32:00,70.0,62.0,29.73,South,190,2.0,8.0,75,0.00,,,0.67,,2013-05-21 17:32:00,
2013-05-21 13:43:00,71.0,63.0,29.72,SSW,205,2.0,8.0,75,0.00,,,0.67,,2013-05-21 17:43:00,
2013-05-21 13:52:00,71.0,63.0,29.72,SSW,205,2.0,8.0,75,0.00,,,0.67,,2013-05-21 17:52:00,
2013-05-21 14:02:00,72.0,62.0,29.71,WSW,239,0.0,7.0,71,0.00,,,0.67,,2013-05-21 18:02:00,
2013-05-21 14:12:00,73.0,63.0,29.70,WSW,251,0.0,6.0,71,0.00,,,0.67,,2013-05-21 18:12:00,
2013-05-21 14:22:00,73.0,63.0,29.70,WSW,251,0.0,6.0,71,0.00,,,0.67,,2013-05-21 18:22:00,
2013-05-21 14:32:00,74.0,63.0,29.70,SSE,162,4.0,8.0,69,0.00,,,0.67,,2013-05-21 18:32:00,
2013-05-21 14:42:00,74.0,62.0,29.70,SW,234,2.0,9.0,66,0.00,,,0.67,,2013-05-21 18:42:00,
2013-05-21 14:52:00,74.0,62.0,29.70,SW,234,2.0,9.0,66,0.00,,,0.67,,2013-05-21 18:52:00,
2013-05-21 15:01:00,75.0,64.0,29.70,SW,236,3.0,8.0,68,0.00,,,0.67,,2013-05-21 19:01:00,
2013-05-21 15:11:00,75.0,63.0,29.70,South,172,5.0,6.0,66,0.00,,,0.57,,2013-05-21 19:11:00,
2013-05-21 15:21:00,75.0,63.0,29.70,South,172,5.0,6.0,66,0.00,,,0.57,,2013-05-21 19:21:00,
2013-05-21 15:32:00,76.0,63.0,29.69,SW,230,3.0,8.0,64,0.00,,,0.30,,2013-05-21 19:32:00,
2013-05-21 15:42:00,76.0,63.0,29.69,SW,230,3.0,8.0,64,0.00,,,0.30,,2013-05-21 19:42:00,
2013-05-21 15:52:00,76.0,63.0,29.69,SW,230,3.0,8.0,64,0.00,,,0.30,,2013-05-21 19:52:00,
2013-05-21 16:03:00,76.0,62.0,29.69,South,180,7.0,10.0,63,0.00,,,0.30,,2013-05-21 20:03:00,
2013-05-21 16:11:00,76.0,62.0,29.69,South,180,7.0,10.0,63,0.00,,,0.30,,2013-05-21 20:11:00,
2013-05-21 16:22:00,77.0,63.0,29.69,WSW,255,3.0,7.0,62,0.00,,,0.29,,2013-05-21 20:22:00,
2013-05-21 16:32:00,77.0,62.0,29.69,South,187,1.0,8.0,59,0.00,,,0.29,,2013-05-21 20:32:00,
2013-05-21 16:42:00,77.0,61.0,29.68,WSW,240,6.0,12.0,58,0.00,,,0.29,,2013-05-21 20:42:00,
2013-05-21 16:52:00,77.0,61.0,29.68,WSW,240,6.0,12.0,58,0.00,,,0.29,,2013-05-21 20:52:00,
2013-05-21 17:02:00,77.0,61.0,29.68,WSW,240,6.0,12.0,58,0.00,,,0.29,,2013-05-21 21:02:00,
2013-05-21 17:11:00,77.0,61.0,29.68,WSW,240,6.0,12.0,58,0.00,,,0.29,,2013-05-21 21:11:00,
2013-05-21 17:21:00,78.0,61.0,29.67,SSW,201,4.0,8.0,56,0.00,,,0.29,,2013-05-21 21:21:00,
2013-05-21 17:33:00,75.0,63.0,29.67,North,359,3.0,10.0,66,0.00,,,0.29,,2013-05-21 21:33:00,
2013-05-21 17:43:00,72.0,62.0,29.68,North,6,5.0,10.0,70,0.00,,,0.29,,2013-05-21 21:43:00,
2013-05-21 17:53:00,72.0,62.0,29.68,North,6,5.0,10.0,70,0.00,,,0.29,,2013-05-21 21:53:00,
2013-05-21 18:02:00,72.0,63.0,29.68,NNW,343,4.0,11.0,73,0.00,,,0.29,,2013-05-21 22:02:00,
2013-05-21 18:12:00,72.0,63.0,29.68,NNW,343,4.0,11.0,73,0.00,,,0.29,,2013-05-21 22:12:00,
2013-05-21 18:23:00,71.0,62.0,29.68,North,358,6.0,10.0,74,0.00,,,0.29,,2013-05-21 22:23:00,
2013-05-21 18:33:00,69.0,61.0,29.68,NNE,15,10.0,14.0,76,0.00,,,0.29,,2013-05-21 22:33:00,
2013-05-21 18:42:00,69.0,61.0,29.68,North,8,3.0,10.0,76,0.00,,,0.29,,2013-05-21 22:42:00,
2013-05-21 18:53:00,69.0,61.0,29.68,North,8,3.0,10.0,76,0.00,,,0.29,,2013-05-21 22:53:00,
2013-05-21 19:02:00,69.0,61.0,29.68,North,8,3.0,10.0,76,0.00,,,0.29,,2013-05-21 23:02:00,
2013-05-21 19:12:00,69.0,61.0,29.68,North,8,3.0,10.0,76,0.00,,,0.29,,2013-05-21 23:12:00,
2013-05-21 19:22:00,69.0,61.0,29.68,North,8,3.0,10.0,76,0.00,,,0.29,,2013-05-21 23:22:00,
2013-05-21 19:32:00,64.0,58.0,29.69,North,356,3.0,14.0,81,0.00,,,0.29,,2013-05-21 23:32:00,
2013-05-21 19:42:00,64.0,58.0,29.71,NNW,343,13.0,13.0,82,0.00,,,0.29,,2013-05-21 23:42:00,
2013-05-21 19:52:00,64.0,58.0,29.71,NNW,343,13.0,13.0,82,0.00,,,0.29,,2013-05-21 23:52:00,
2013-05-21 20:01:00,62.0,57.0,29.72,North,0,4.0,9.0,83,0.00,,,0.29,,2013-05-22 00:01:00,
2013-05-21 20:11:00,61.0,56.0,29.71,North,11,5.0,10.0,84,0.00,,,0.29,,2013-05-22 00:11:00,
2013-05-21 20:21:00,61.0,56.0,29.71,North,11,5.0,10.0,84,0.00,,,0.29,,2013-05-22 00:21:00,
2013-05-21 20:32:00,59.0,54.0,29.71,NNE,14,3.0,12.0,85,0.00,,,0.29,,2013-05-22 00:32:00,
2013-05-21 20:41:00,58.0,54.0,29.71,North,358,1.0,12.0,87,0.00,,,0.29,,2013-05-22 00:41:00,
2013-05-21 20:52:00,58.0,54.0,29.71,North,358,1.0,12.0,87,0.00,,,0.29,,2013-05-22 00:52:00,
2013-05-21 21:01:00,57.0,55.0,29.70,North,0,2.0,7.0,94,0.00,,,0.29,,2013-05-22 01:01:00,
2013-05-21 21:11:00,57.0,55.0,29.70,North,0,2.0,7.0,94,0.00,,,0.29,,2013-05-22 01:11:00,
2013-05-21 21:21:00,57.0,56.0,29.70,SW,235,0.0,5.0,95,0.02,,,0.31,,2013-05-22 01:21:00,
2013-05-21 21:32:00,59.0,58.0,29.70,WSW,242,0.0,3.0,97,0.07,,,0.36,,2013-05-22 01:32:00,
2013-05-21 21:42:00,59.0,58.0,29.70,WSW,242,0.0,0.0,97,0.10,,,0.39,,2013-05-22 01:42:00,
2013-05-21 21:52:00,59.0,58.0,29.70,WSW,242,0.0,0.0,97,0.10,,,0.39,,2013-05-22 01:52:00,
2013-05-21 22:01:00,59.0,58.0,29.71,WSW,242,0.0,0.0,97,0.13,,,0.42,,2013-05-22 02:01:00,
2013-05-21 22:11:00,59.0,58.0,29.71,WSW,242,0.0,2.0,98,0.13,,,0.42,,2013-05-22 02:11:00,
2013-05-21 22:21:00,59.0,58.0,29.71,WSW,242,0.0,2.0,98,0.13,,,0.42,,2013-05-22 02:21:00,
2013-05-21 22:32:00,59.0,58.0,29.71,WSW,242,0.0,0.0,98,0.07,,,0.42,,2013-05-22 02:32:00,
2013-05-21 22:42:00,59.0,58.0,29.72,WSW,242,1.0,3.0,98,0.04,,,0.42,,2013-05-22 02:42:00,
2013-05-21 22:51:00,59.0,58.0,29.72,WSW,242,1.0,3.0,98,0.04,,,0.42,,2013-05-22 02:51:00,
2013-05-21 23:01:00,59.0,58.0,29.71,WSW,242,1.0,3.0,98,0.01,,,0.42,,2013-05-22 03:01:00,
2013-05-21 23:11:00,58.0,57.0,29.72,WSW,243,0.0,3.0,98,0.00,,,0.42,,2013-05-22 03:11:00,
2013-05-21 23:21:00,58.0,57.0,29.72,WSW,243,0.0,3.0,98,0.00,,,0.42,,2013-05-22 03:21:00,
2013-05-21 23:33:00,58.0,58.0,29.71,WSW,242,0.0,2.0,99,0.01,,,0.43,,2013-05-22 03:33:00,
2013-05-21 23:43:00,58.0,58.0,29.71,WSW,243,2.0,3.0,99,0.01,,,0.43,,2013-05-22 03:43:00,
2013-05-21 23:53:00,58.0,58.0,29.71,WSW,243,2.0,3.0,99,0.01,,,0.43,,2013-05-22 03:53:00,